Flag for Poland Weather past 2 weeks in Gdynia, Poland

Now
70 °F

Passing clouds.


Feels Like: 70 °F
Forecast: 55 / 69 °F
Wind: 12 mph from Northwest

Location: Gdansk-Rebiechowo

Current Time: Jun 30, 2015 at 2:49:14 PM

Latest Report: Jun 30, 2015 at 2:00 PM


Visibility: N/A

Pressure: 30.12 "Hg

Humidity: 50%

Dew point: 50 °F

Location of GdyniaLocation

Historic Weather in Gdynia — Graph

°F

Gdynia temperature yesterday

Maximum temperature yesterday: 68 °F (at 3:00 PM)
Minimum temperature yesterday: 55 °F (at 1:30 AM)
Average temperature yesterday: 61 °F

Past Weeks' High & Low Weather Summary

 TemperatureHumidityPressure
High70 °F (Jun 30, 12:30 PM)100% (Jun 20, 12:00 AM)30.12 "Hg (Jun 20, 12:00 AM)
Low43 °F (Jun 16, 2:30 AM)42% (Jun 15, 1:00 PM)29.59 "Hg (Jun 23, 3:30 AM)
Average57 °F79%29.95 "Hg
* Reported Jun 15 1:00 PM — Jun 30 1:00 PM, Gdynia, Weather by CustomWeather, © 2015

Note: Actual official high and low records may vary slightly from our data, if they occured in-between our weather recording intervals... More about our weather records

Advertising

Gdynia weather history for previous 24 hours

 ConditionsComfort  
Time TempWeatherWind HumidityBarometerVisibility
1:00 PM
Tue, Jun 30
70 °FScattered clouds.14 mph53%30.12 "HgN/A
12:30 PM70 °FScattered clouds.14 mph53%30.12 "HgN/A
12:00 PM68 °FScattered clouds.13 mph56%30.12 "HgN/A
11:30 AM68 °FScattered clouds.14 mph60%30.12 "HgN/A
11:00 AM68 °FScattered clouds.12 mph60%30.09 "HgN/A
10:30 AM68 °FScattered clouds.8 mph60%30.09 "HgN/A
10:00 AM66 °FScattered clouds.8 mph68%30.09 "HgN/A
9:30 AM68 °FScattered clouds.9 mph64%30.09 "HgN/A
9:00 AM66 °FPassing clouds.9 mph68%30.09 "HgN/A
8:30 AM64 °FSunny.7 mph78%30.09 "Hg10 mi
8:00 AM64 °FPassing clouds.6 mph78%30.09 "HgN/A
7:30 AM61 °FPassing clouds.6 mph94%30.09 "HgN/A
7:00 AM59 °FPassing clouds.5 mph94%30.09 "HgN/A
6:30 AM57 °FPassing clouds.5 mph94%30.09 "HgN/A
6:00 AM57 °FSunny.5 mph94%30.09 "Hg10 mi
5:30 AM57 °FPassing clouds.5 mph94%30.09 "HgN/A
5:00 AM57 °FPassing clouds.5 mph94%30.09 "HgN/A
4:30 AM55 °FSprinkles. Passing clouds.2 mph100%30.09 "HgN/A
4:00 AM55 °FRain showers. Passing clouds.7 mph94%30.09 "HgN/A
3:30 AM54 °FClear.1 mph100%30.09 "Hg10 mi
3:00 AM54 °FClear.1 mph94%30.09 "Hg10 mi
2:30 AM54 °FClear.1 mph100%30.09 "Hg10 mi
2:00 AM54 °FClear.1 mph94%30.09 "Hg10 mi
1:30 AM54 °FClear.2 mph94%30.12 "Hg10 mi
1:00 AM54 °FClear.1 mph94%30.12 "Hg10 mi
12:30 AM55 °FClear.1 mph88%30.12 "Hg10 mi
12:00 AM57 °FClear.1 mph82%30.12 "Hg10 mi
11:30 PM
Mon, Jun 29
57 °FClear.3 mph88%30.12 "Hg10 mi
11:00 PM57 °FClear.3 mph88%30.12 "Hg10 mi
10:30 PM59 °FClear.5 mph82%30.12 "Hg10 mi
10:00 PM59 °FPassing clouds.3 mph82%30.12 "HgN/A
9:30 PM59 °FSunny.5 mph88%30.12 "Hg10 mi
9:00 PM59 °FSunny.5 mph88%30.12 "Hg10 mi
8:30 PM61 °FSunny.7 mph83%30.12 "Hg10 mi
8:00 PM63 °FPassing clouds.5 mph77%30.12 "HgN/A
7:30 PM64 °FPassing clouds.3 mph73%30.12 "HgN/A
7:00 PM64 °FPassing clouds.5 mph73%30.12 "HgN/A
6:30 PM64 °FScattered clouds.5 mph73%30.12 "HgN/A
6:00 PM64 °FScattered clouds.7 mph73%30.12 "HgN/A
5:30 PM66 °FScattered clouds.7 mph73%30.12 "HgN/A
5:00 PM68 °FScattered clouds.2 mph64%30.12 "HgN/A
4:30 PM66 °FScattered clouds.5 mph68%30.12 "HgN/A
4:00 PM64 °FScattered clouds.6 mph73%30.12 "HgN/A
3:30 PM64 °FScattered clouds.9 mph73%30.12 "HgN/A
3:00 PM68 °FScattered clouds.8 mph56%30.12 "HgN/A
2:30 PM66 °FScattered clouds.5 mph64%30.12 "HgN/A
2:00 PM66 °FPassing clouds.7 mph64%30.12 "HgN/A
Weather by CustomWeather, © 2015

See weather overviewHow to use our weather pages